Activity Log for Mar, 10 2019

Back to Activity Log Search


Incident Time Nature Address
19F026536 00:04:14 65T SUICIDE THR 33XX W COLISEUM BLVD
19F026538 00:07:15 113 SHOTS FIRED 41XX SMITH ST
19F026537 00:08:08 113 SHOTS FIRED HESSEN CASSEL RD & MCKINNIE AVE
19F026540 00:13:52 46 DOMESTIC 67XX RAMBLEWOOD DR
19F026541 00:15:12 30 TRAFFIC STOP WAYNE TRACE & CLERMONT AVE
19F026542 00:16:34 25 PD ACCIDENT FLEETWOOD AVE & RODGERS AVE
19F026543 00:18:34 46,96 1XX W CREIGHTON AVE
19F026545 00:18:57 64 NOT SEEN 12XX PARK AVE
19F026544 00:21:20 30 TRAFFIC STOP MCKINNIE AVE & MCMILLEN PARK DR
19F026546 00:26:29 30 TRAFFIC STOP HESSEN CASSEL RD & LARKWOOD LN
19F026547 00:27:13 43 DISTURBANCE 32XX DIPLOMAT DR
19F026548 00:28:01 63 CONTACT 60XX LIMA RD
19F026549 00:40:54 40A AUDIBLE 10XX E WAYNE ST
19F026550 00:43:56 30 TRAFFIC STOP S ANTHONY BLVD & E RUDISILL BLVD
19F026551 00:46:03 30 TRAFFIC STOP OXFORD ST & HOLTON AVE
19F026552 00:49:18 30 TRAFFIC STOP MCKINNIE AVE & HESSEN CASSEL RD
19F026553 00:50:11 EMS 54XX MEIJER DR
19F026554 00:50:48 20 PROBLEM UNK 3XX RADIAL LN
19F026555 00:51:41 63 CONTACT GOSHEN RD & W COLISEUM BLVD
19F026556 00:51:41 40A AUDIBLE 19XX W WALLEN RD
19F026557 00:52:03 40A AUDIBLE 9XX IRENE AVE
19F026559 00:56:38 42 INTOX PERSON W RUDISILL BLVD & OLD MILL RD
19F026558 00:56:40 43 DISTURBANCE 1XX W CREIGHTON AVE
19F026560 00:58:13 43 DISTURBANCE 26XX GAY ST
19F026561 01:01:56 63 CONTACT 44XX TURF LN
19F026562 01:06:17 30 TRAFFIC STOP E DOUGLAS AVE & S CLINTON ST
19F026563 01:09:45 48 SUSPICIOUS 43XX REED ST
19F026564 01:18:07 43 DISTURBANCE 3XX RADIAL LN
19F026565 01:23:46 40A AUDIBLE 15XX S ILLINOIS RD
19F026566 01:24:31 41,36 21XX W COLISEUM BLVD
19F026568 01:28:59 40A AUDIBLE 16XX RUSKIN CT
19F026571 01:29:13 25HS HIT SKIP 13XX W WASHINGTON CENTER RD
19F026567 01:29:40 51 THEFT 23XX FAIRFIELD AVE
19F026569 01:30:10 46 DOMESTIC XX E MAIN ST
19F026570 01:32:02 43 DISTURBANCE 30XX GOSHEN RD
19F026574 01:34:41 40A AUDIBLE 55XX COLDWATER RD
19F026572 01:38:19 30 TRAFFIC STOP W PAULDING RD & WEBSTER ST
19F026573 01:38:56 EMS 34XX CONTESSA DR
19F026575 01:39:12 40A AUDIBLE 33XX INDEPENDENCE DR
19F026577 01:53:21 30 TRAFFIC STOP W CREIGHTON AVE & S HARRISON ST
19F026578 01:56:39 40A AUDIBLE 61XX LIMA RD
19F026579 01:57:25 48,36 23XX POINT WEST DR
19F026586 01:57:49 44LM 28XX SOUTHWAY DR
19F026581 03:01:03 40A AUDIBLE 62XX LIMA RD
19F026580 03:01:17 46,96 1XX W CREIGHTON AVE
19F026584 03:03:35 15,85 ASST AT O GOSHEN AVE & LILLIAN AVE
19F026582 03:04:45 41,36 79XX DECATUR RD
19F026583 03:04:58 43 DISTURBANCE 40XX WILLSHIRE ESTATES DR
19F026585 03:07:15 40A AUDIBLE 36XX GOSHEN RD
19F026588 03:12:53 48 SUSPICIOUS 27XX LOWER HUNTINGTON RD
19F026587 03:13:28 50IP BURG I/P 26XX COVINGTON COMMONS DR
19F026589 03:17:16 40A AUDIBLE 19XX N CLINTON ST
19F026590 03:18:44 40A AUDIBLE 35XX INDEPENDENCE DR
19F026591 03:21:23 111D DOG 97XX AUBURN RD
19F026593 03:21:30 40A AUDIBLE 127XX COLDWATER RD
19F026594 03:22:24 15 ASSIST S LAFAYETTE ST & GUMPPER AVE
19F026592 03:22:28 48,36 28XX E STATE BLVD
19F026595 03:22:35 40A AUDIBLE 4XX E COLISEUM BLVD
19F026596 03:29:50 40A AUDIBLE 19XX N CLINTON ST
19F026597 03:32:12 40A AUDIBLE 34XX N CLINTON ST
19F026598 03:33:56 40A AUDIBLE 62XX LIMA RD
19F026600 03:35:26 40A AUDIBLE 56XX S ANTHONY BLVD
19F026599 03:36:31 40A AUDIBLE 58XX CROSS CREEK BLVD
19F026601 03:38:52 40A AUDIBLE 13XX PUTNAM ST
19F026602 03:42:30 40A AUDIBLE 54XX KEYSTONE DR
19F026609 03:43:53 40A AUDIBLE 58XX CROSS CREEK BLVD
19F026603 03:43:54 48 SUSPICIOUS 26XX GAY ST
19F026604 03:44:36 40A AUDIBLE 70XX COLDWATER RD
19F026605 03:48:02 40A AUDIBLE 36XX TRANSPORTATION DR
19F026606 03:52:17 40A AUDIBLE 62XX LIMA RD
19F026607 03:53:04 43 DISTURBANCE 44XX BLUFFTON RD
19F026611 04:03:05 911 HANG UP 49XX LIMA RD
19F026608 04:03:13 48 SUSPICIOUS TYLER AVE & HUFFMAN BLVD
19F026613 04:05:57 40A AUDIBLE 85XX TEMPLE DR
19F026610 04:06:32 30 TRAFFIC STOP 36XX E WASHINGTON BLVD
19F026612 04:07:59 40A AUDIBLE 56XX S ANTHONY BLVD
19F026624 04:10:38 1 MEET 1XX W CREIGHTON AVE
19F026614 04:11:36 40A AUDIBLE 102XX MAYSVILLE RD
19F026619 04:11:46 101 OPEN DOOR 73XX HICKORY CREEK DR
19F026615 04:11:58 40A AUDIBLE 58XX MEIJER DR
19F026617 04:12:42 40P PANIC ALARM 31XX GOEGLEIN RD
19F026616 04:12:44 30 TRAFFIC STOP ALEXANDER ST & MCKEE ST
19F026618 04:16:12 43 DISTURBANCE 10XX N COLISEUM BLVD
19F026620 04:17:33 EMS 47XX BOWSER AVE
19F026621 04:23:51 30 TRAFFIC STOP MEYER RD & MOELLER RD
19F026623 04:28:10 46,96 25XX FOX AVE
19F026622 04:28:21 48,36 7XX N COLISEUM BLVD
19F026626 04:30:49 46 DOMESTIC 21XX FOX AVE
19F026625 04:33:00 113 SHOTS FIRED 57XX ALLENDALE DR
19F026627 04:36:18 113 SHOTS FIRED 12XX E PETTIT AVE
19F026628 04:39:27 30 TRAFFIC STOP OLIVER ST & CAPITOL AVE
19F026629 04:42:49 1 MEET 22XX RANDALLIA DR
19F026630 04:44:34 65T SUICIDE THR 9XX E WASHINGTON BLVD
19F026631 04:54:54 40A AUDIBLE 3XX W BUTLER ST
19F026632 05:11:04 30 TRAFFIC STOP S LAFAYETTE ST & E LEITH ST
19F026634 05:11:41 46,96 48XX WAYNE PARK DR
19F026633 05:13:34 40 ALARM 12XX E DUPONT RD
19F026635 05:14:20 41,36 1XX W EL DORADO TRL
19F026637 05:15:15 48 SUSPICIOUS 5XX W JEFFERSON BLVD
19F026636 05:15:44 41,36 S COLISEUM BLVD & NEW HAVEN AVE
19F026638 05:18:05 43 DISTURBANCE 30XX W COLISEUM BLVD
19F026639 05:38:40 103 UNWANTED 30XX W COLISEUM BLVD
19F026640 05:40:04 34 TRAFF HAZARD COLDWATER RD & E COLISEUM BLVD
19F026641 06:10:45 40A AUDIBLE 1XX E WALLEN RD
19F026642 06:18:26 911 HANG UP 81XX S ANTHONY BLVD
19F026643 06:24:28 66 MENTALLY ILL 49XX WINCHESTER RD
19F026644 06:29:47 40A AUDIBLE 56XX COVENTRY LN
19F026645 06:37:39 51 THEFT 3XX W DEWALD ST
19F026646 06:43:17 40A AUDIBLE 34XX N CLINTON ST
19F026648 06:51:28 34 TRAFF HAZARD 8XX W DUPONT RD
19F026647 06:51:48 43 DISTURBANCE E PETTIT AVE & WARSAW ST
19F026649 07:04:36 43 DISTURBANCE 5XX W JEFFERSON BLVD
19F026650 07:07:08 50IP BURG I/P 15XX W DUPONT RD
19F026651 07:09:17 34 TRAFF HAZARD MAUMEE AVE & OHIO ST
19F026657 07:10:25 62 PARTY ARMED 63XX ORANGE DR
19F026652 07:22:06 40A AUDIBLE 59XX SUMMER WIND PL
19F026653 07:23:54 41,36 3XX E JEFFERSON BLVD
19F026654 07:24:12 40A AUDIBLE 63XX WINCHESTER RD
19F026655 07:32:21 40A AUDIBLE 7XX E PAULDING RD
19F026656 07:42:50 43 DISTURBANCE 63XX SOUTHCREST RD
19F026661 07:47:14 18 WORK TRAFFIC MAPLECREST RD & NORTHWOOD PLAZA AC
19F026658 07:48:22 30 TRAFFIC STOP W PAULDING RD & FAIRFIELD AVE
19F026659 07:56:39 40 ALARM 12XX PROGRESS RD
19F026660 07:57:18 40A AUDIBLE 15XX CATALPA ST
19F026662 08:06:22 41 MAN DOWN 39XX E STATE BLVD
19F026663 08:07:46 34 TRAFF HAZARD 18XX S CALHOUN ST
19F026664 08:32:22 40A AUDIBLE 37XX S CALHOUN ST
19F026665 08:33:51 EMS 41XX WARSAW ST
19F026667 08:40:26 108 FOLLOWUP FAIRFIELD AVE & W CREIGHTON AVE
19F026668 08:42:22 46,96 3XX KINSMOOR AVE
19F026669 08:43:44 23 VANDALISM 34XX AUER DR
19F026673 08:54:20 27 RECKLESS DRI GOSHEN RD & W COLISEUM BLVD
19F026670 08:55:49 40A AUDIBLE 2XX N SEMINOLE CIR
19F026671 09:02:19 30 TRAFFIC STOP S HANNA ST & E TABER ST
19F026672 09:03:44 25HS HIT SKIP 21XX W COLISEUM BLVD
19F026674 09:20:35 25 PD ACCIDENT 6XX W STATE BLVD
19F026675 09:24:13 25HS HIT SKIP CODY AVE & GARFIELD ST
19F026676 09:35:51 23,113 28XX ABBOTT ST
19F026677 09:35:51 EMS 58XX CHALLENGER PKWY
19F026678 09:37:39 40P PANIC ALARM 3XX W WOODLAND AVE
19F026679 09:40:48 40A AUDIBLE 10XX CASS ST
19F026680 09:43:27 48,35 HOLTON AVE & FISHER ST
19F026682 09:56:20 23 VANDALISM 102XX NOTTAWA TRL
19F026681 09:57:06 129 39XX MCKINNIE AVE
19F026683 10:02:52 40A AUDIBLE 62XX BLUFFTON RD
19F026684 10:06:29 30 TRAFFIC STOP E STATE BLVD & CRESCENT AVE
19F026685 10:07:28 40A AUDIBLE 109XX STELLHORN RD
19F026693 10:13:10 102 THREATS 28XX S CALHOUN ST
19F026687 10:15:16 43 DISTURBANCE 31XX SMITH ST
19F026686 10:16:22 34 TRAFF HAZARD W DUPONT RD & LIMA RD
19F026688 10:24:26 101 OPEN DOOR 8XX EDGEWATER AVE
19F026691 10:29:30 25 PD ACCIDENT E RUDISILL BLVD & S CLINTON ST
19F026689 10:30:19 43 DISTURBANCE 36XX CHEVIOT DR
19F026690 10:32:31 39U UNAUTHORIZE 27XX FREEMAN ST
19F026692 10:33:08 25 PD ACCIDENT KINNAIRD AVE & SOUTHWAYNE AVE
19F026694 10:43:17 30 TRAFFIC STOP 12XX N ANTHONY BLVD
19F026695 10:44:41 ATL 115XX DELL LOCH WAY
19F026696 10:49:23 129 35XX GEDDES CT
19F026697 10:50:36 22I JUV INVEST 23XX REHM DR
19F026698 10:58:39 30 TRAFFIC STOP 7XX E WALLACE ST
19F026706 11:02:27 37 PARKING VIOL 53XX S HANNA ST
19F026699 11:02:28 48 SUSPICIOUS 311XX I 69 NB
19F026700 11:06:02 46,96 10XX N COLISEUM BLVD
19F026702 11:06:40 25 PD ACCIDENT N COLISEUM BLVD & E STATE BLVD
19F026701 11:08:23 65T SUICIDE THR 57XX E STATE BLVD
19F026703 11:11:37 46 DOMESTIC 23XX POINT WEST DR APT 3A
19F026704 11:19:46 23,35 VAND VEH 18XX RIVER RUN TRL
19F026705 11:21:49 40A AUDIBLE 45XX GAYWOOD DR
19F026707 11:32:23 96 BATTERY 26XX FAIRFIELD VIEW PL
19F026712 11:33:15 34 TRAFF HAZARD RIDGEWOOD DR & N CLINTON ST
19F026708 11:34:49 101 OPEN DOOR 65XX ROCKINGHAM DR
19F026709 11:37:07 30 TRAFFIC STOP S ANTHONY BLVD & E FAIRFAX AVE
19F026711 11:37:16 103 UNWANTED 17XX APPLE GLEN BLVD
19F026710 11:39:13 101 OPEN DOOR 42XX HOAGLAND AVE
19F026713 11:48:07 33J LOCKED OUT 21XX PEMBERTON DR
19F026714 11:48:31 63 CONTACT 75XX DECATUR RD
19F026727 11:52:49 50 BURGLARY 54XX S CALHOUN ST
19F026715 11:53:33 25HS HIT SKIP 10XX SALLIE AVE
19F026716 11:55:02 48 SUSPICIOUS WARSAW ST & BAXTER ST
19F026717 11:55:05 40A AUDIBLE 36XX INDEPENDENCE DR
19F026718 11:56:54 40A AUDIBLE 54XX POTOMAC DR
19F026719 11:59:48 40A AUDIBLE 45XX SECRETARY DR
19F026720 12:00:47 40A AUDIBLE 76XX SCARLET CT
19F026722 12:03:24 23JO 11XX E BELMONT DR
19F026723 12:04:33 1 MEET 18XX KLUG DR
19F026721 12:09:24 1 MEET 75XX SOUTHTOWN XING
19F026724 12:16:58 43 DISTURBANCE 3XX RADIAL LN
19F026725 12:24:28 50IP BURG I/P 64XX ALVAREZ DR
19F026726 12:34:49 32A DEATH NOTIF 23XX BOWSER AVE
19F026728 12:43:55 46 DOMESTIC 5XX PROSPECT AVE
19F026729 13:02:13 1 MEET XX E MAIN ST
19F026730 13:09:12 108 FOLLOWUP 19XX CAREW ST
19F026731 13:11:30 101 OPEN DOOR 5XX E DUPONT RD
19F026733 13:14:10 46,96 18XX BLUFFTON RD
19F026732 13:14:20 43 DISTURBANCE 33XX W COLISEUM BLVD
19F026735 13:19:02 911 HANG UP 19XX CORONET DR
19F026736 13:19:34 34 TRAFF HAZARD 28XX REYNOLDS ST
19F026737 13:28:16 65A SUICIDE ATT 18XX GRISWOLD DR
19F026738 13:32:14 43 DISTURBANCE 52XX ST JOE CENTER RD
19F026748 13:37:19 18 WORK TRAFFIC 108XX LONGWOOD DR
19F026739 13:40:32 25 PD ACCIDENT 15XX DIRECTORS ROW
19F026740 13:41:29 25 PD ACCIDENT LIMA RD & NORTHLAND BLVD
19F026741 13:42:54 33,34 W WASHINGTON CENTER RD & GOSHEN RD
19F026742 13:45:53 48 SUSPICIOUS 12XX SYLVIA AVE
19F026743 13:46:42 40A AUDIBLE 77XX OPPORTUNITY DR
19F026746 13:48:26 25HS HIT SKIP 34XX ROBINWOOD DR
19F026744 13:49:14 25 PD ACCIDENT 3XX E COLISEUM BLVD
19F026751 13:49:39 39 STOLEN VEHIC 37XX E WASHINGTON BLVD
19F026745 13:55:46 30 TRAFFIC STOP WINCHESTER RD & DODANE RD
19F026747 13:58:54 102 THREATS XX E MAIN ST
19F026749 13:59:08 30 TRAFFIC STOP N COLISEUM BLVD & LAKE AVE
19F026750 13:59:20 33,34 S LAFAYETTE ST & E JEFFERSON BLVD
19F026753 14:01:43 103 UNWANTED 13XX STAG DR
19F026752 14:03:46 25HS HIT SKIP 11XX S THOMAS RD
19F026754 14:04:48 30 TRAFFIC STOP S ANTHONY BLVD & BAXTER ST
19F026755 14:11:10 108 FOLLOWUP 8XX RUSSELL AVE
19F026758 14:16:23 37 PARKING VIOL 36XX HIAWATHA BLVD
19F026757 14:16:35 96 BATTERY 9XX NUTTMAN AVE
19F026756 14:18:25 30 TRAFFIC STOP HOBSON RD & STELLHORN RD
19F026759 14:19:27 43 DISTURBANCE 19XX SEDDLEMEYER AVE
19F026760 14:21:36 51 THEFT 31XX S HANNA ST
19F026761 14:23:33 30 TRAFFIC STOP GOSHEN RD & W COLISEUM BLVD
19F026762 14:27:40 15 ASSIST 42XX REED ST
19F026763 14:29:06 43 DISTURBANCE 58XX CHALLENGER PKWY
19F026764 14:35:22 30 TRAFFIC STOP LAKE AVE & N ANTHONY BLVD
19F026765 14:36:22 30 TRAFFIC STOP HOBSON RD & LAKE AVE
19F026766 14:42:07 30 TRAFFIC STOP LAKE AVE & N ANTHONY BLVD
19F026767 14:50:24 51 THEFT 21XX BROOKLYN AVE
19F026768 14:53:13 47 REMOVE ITEMS 26XX SCHAPER DR
19F026769 15:01:27 51 THEFT 1XX EDGEKNOLL LN
19F026770 15:12:04 30 TRAFFIC STOP 10XX COLUMBIA AVE
19F026771 15:13:13 101 OPEN DOOR 71XX VENTURE LN
19F026772 15:13:28 63 CONTACT VAN BUREN ST & W SUPERIOR ST
19F026773 15:16:06 911 HANG UP 43XX MCMILLEN PARK DR
19F026775 15:20:47 40A AUDIBLE 22XX GOSHEN RD
19F026774 15:21:23 30 TRAFFIC STOP JULIETTE AVE & HALE AVE
19F026776 15:25:00 46 DOMESTIC 57XX E STATE BLVD
19F026777 15:25:22 48 SUSPICIOUS CASA GRANDE CT & CASA GRANDE DR
19F026778 15:31:29 30 TRAFFIC STOP 20XX W STATE BLVD
19F026790 15:31:48 51 THEFT 45XX BOWSER AVE
19F026779 15:32:02 40 ALARM 33XX N CLINTON ST
19F026780 15:35:05 40A AUDIBLE 54XX KEYSTONE DR
19F026782 15:35:12 47 REMOVE ITEMS 70XX SALGE CT
19F026785 15:35:27 40A AUDIBLE 30XX S MONROE ST
19F026781 15:36:43 70 FIRE 108XX LONGWOOD DR
19F026783 15:39:06 30 TRAFFIC STOP FAIRFIELD AVE & W WILDWOOD AVE
19F026784 15:40:41 30 TRAFFIC STOP E COLISEUM BLVD & PAUL SHAFFER DR
19F026789 15:41:13 25HS HIT SKIP 42XX COLDWATER RD
19F026786 15:41:25 30 TRAFFIC STOP 20XX W STATE BLVD
19F026787 15:41:40 64 NOT SEEN 6XX WARWICK AVE
19F026788 15:42:48 22I JUV INVEST 20XX WELLS ST
19F026791 15:48:22 30 TRAFFIC STOP HARRIS RD & OLYMPIA CT
19F026792 15:48:38 25HS HIT SKIP 4XX GREENLAWN AVE
19F026793 15:49:01 17 MOTOR CHECK 4XX KINNAIRD AVE
19F026794 15:56:12 30 TRAFFIC STOP COVINGTON RD & GETZ RD
19F026796 16:07:15 66 MENTALLY ILL 18XX GRISWOLD DR
19F026795 16:08:35 43 DISTURBANCE 50XX LIMA RD
19F026797 16:15:14 17 MOTOR CHECK 93XX LIMA RD
19F026799 16:19:43 45 NEIGHBORHOOD 36XX LOGAN AVE
19F026798 16:23:32 25HS HIT SKIP 42XX COLDWATER RD
19F026800 16:30:35 30 TRAFFIC STOP DECATUR RD & HYSTONE DR
19F026801 16:31:40 25 PD ACCIDENT COLDWATER RD & E FERNHILL AVE
19F026802 16:36:33 46 DOMESTIC 74XX ANTEBELLUM BLVD
19F026803 16:40:15 46,96 37XX LILLIE ST
19F026804 16:44:38 22I JUV INVEST 1XX W RUDISILL BLVD
19F026809 16:46:09 47 REMOVE ITEMS 11XX RIVERMET AVE
19F026808 16:47:10 37 PARKING VIOL 39XX KNIGHTWAY DR
19F026805 16:48:00 30 TRAFFIC STOP W JEFFERSON BLVD & ARDMORE AVE
19F026807 16:55:13 48 SUSPICIOUS 19XX S CALHOUN ST
19F026806 16:56:43 51 THEFT 43XX W JEFFERSON BLVD
19F026810 16:59:26 40A AUDIBLE 41XX HESSEN CASSEL RD
19F026811 17:01:24 23JO 32XX VICTOR LN
19F026812 17:04:11 51JO 60XX LIMA RD
19F026814 17:07:31 43 DISTURBANCE 70XX BEATY AVE
19F026813 17:08:13 51,35 18XX KENTUCKY AVE
19F026815 17:08:19 25HS HIT SKIP 42XX W JEFFERSON BLVD
19F026816 17:09:42 1 MEET 7XX E COLISEUM BLVD
19F026817 17:25:59 48,36 63XX MAPLECREST RD
19F026818 17:31:10 48,36 39XX OLD MILL RD
19F026819 17:42:25 65T SUICIDE THR 8XX RIDGEWOOD DR
19F026820 17:43:06 33 DISABLED VEH 76XX SOUTHTOWN XING
19F026821 17:53:54 46 DOMESTIC 25XX CASTLE DR
19F026822 17:55:42 51 THEFT 61XX LIMA RD
19F026823 18:00:26 14 WARRANT S ANTHONY BLVD & E WAYNE ST
19F026824 18:01:59 30 TRAFFIC STOP W MAIN ST & EWING ST
19F026825 18:03:07 EMS 57XX COVENTRY LN
19F026841 18:09:29 48 SUSPICIOUS RAY RD & CARROLL RD
19F026826 18:10:20 66V MENTAL VIOL 49XX HARTFORD DR
19F026827 18:11:39 30 TRAFFIC STOP BROADWAY & TAYLOR ST
19F026828 18:19:50 30 TRAFFIC STOP S ANTHONY BLVD & E TILLMAN RD
19F026829 18:22:31 33,34 SPY RUN AVE & E STATE BLVD
19F026830 18:25:10 43 DISTURBANCE 57XX CHALLENGER PKWY
19F026831 18:26:09 50 BURGLARY 7XX COLUMBIA AVE
19F026832 18:31:26 911 HANG UP 6XX THIRD ST
19F026843 18:31:31 96 BATTERY 59XX BUNT DR
19F026839 18:34:38 25HS HIT SKIP 3XX E WOODLAND AVE
19F026833 18:36:04 37 PARKING VIOL 74XX MAPLECREST RD
19F026834 18:38:43 16,97 5XX W OAKDALE DR
19F026835 18:41:50 17 MOTOR CHECK 24XX ELYETTA ST
19F026836 18:43:09 46 DOMESTIC 18XX CURDES AVE
19F026837 18:43:33 50 BURGLARY 27XX W WASHINGTON CENTER RD LOT 13
19F026838 18:48:13 EMS 43XX STANDISH DR
19F026842 18:52:02 22RN RUNAWAY 8XX BUCHANAN ST
19F026840 19:04:42 30 TRAFFIC STOP 20XX W FERGUSON RD
19F026844 19:15:36 43 DISTURBANCE 2XX E RUDISILL BLVD
19F026845 19:29:48 48 SUSPICIOUS 12XX MICHIGAN AVE
19F026846 19:32:49 46,62 79XX SERENITY DR
19F026847 19:35:59 41 MAN DOWN 43XX REED ST
19F026854 19:36:27 102,TX THREATS 61XX BUNT DR
19F026849 19:39:42 64 NOT SEEN 24XX BERKLEY AVE
19F026848 19:41:17 40A AUDIBLE 102XX COLDWATER RD
19F026850 19:46:09 41 MAN DOWN 35XX W COLISEUM BLVD
19F026851 19:50:34 30 TRAFFIC STOP ARDMORE AVE & FOREST RIDGE DR
19F026852 19:55:04 1 MEET LINDLEY AVE & TAYLOR ST
19F026855 19:58:43 44 NUISANCE 19XX BAYVIEW DR
19F026853 19:58:57 104 KIDNAPPING CARROLL RD & RAY RD
19F026856 20:03:14 15 ASSIST BUTLER RD & HILLEGAS RD
19F026857 20:03:31 25HS HIT SKIP 28XX S BARR ST
19F026858 20:09:21 40A AUDIBLE 31XX ST JOE CENTER RD
19F026859 20:09:39 911 HANG UP 15XX LAKEHURST DR
19F026860 20:18:47 46 DOMESTIC 27XX W WASHINGTON CENTER RD LOT 22
19F026861 20:20:14 25HS HIT SKIP HAMILTON AVE & S HANNA ST
19F026862 20:22:28 EMS E SUPERIOR ST & S CALHOUN ST
19F026863 20:26:12 66 MENTALLY ILL 59XX MEADOWS DR
19F026864 20:29:24 25 PD ACCIDENT W CREIGHTON AVE & FOX AVE
19F026865 20:35:31 15 ASSIST DECATUR RD & S LAFAYETTE ST
19F026866 20:48:02 36 OCCUPIED VEH ILLINOIS RD & RIVER OAK RUN
19F026867 20:48:56 46 DOMESTIC 28XX HOLTON AVE
19F026868 20:54:51 30 TRAFFIC STOP CRESCENT AVE & E COLISEUM BLVD
19F026869 20:56:31 30 TRAFFIC STOP E STATE BLVD & FOREST VALLEY DR
19F026871 20:59:13 ATL 21XX CHOCHTIMAR TRL
19F026870 21:00:39 46,96 2XX E PETTIT AVE
19F026872 21:25:21 36 OCCUPIED VEH 21XX I 469 NB
19F026873 21:33:01 46,96 57XX LOIS LN
19F026874 21:36:52 25HS HIT SKIP E TILLMAN RD & AUTUMN VIEW DR
19F026875 21:38:14 33,34 29XX I 469 NB
19F026876 21:42:29 43 DISTURBANCE LIMA RD & W COLISEUM BLVD
19F026878 21:49:58 113 SHOTS FIRED 16XX BLK KENTUCKY AVE
19F026877 21:51:59 48 SUSPICIOUS 56XX OLD DOVER BLVD
19F026879 21:58:59 30 TRAFFIC STOP ROEBUCK BLVD & ST JOE RD
19F026880 21:59:25 65T SUICIDE THR 49XX FAIRINGTON DR
19F026881 21:59:58 911 HANG UP 4XX LEXINGTON AVE
19F026884 22:00:26 22I JUV INVEST 29XX QUEEN ST
19F026882 22:03:14 EMS 26XX RIVER PARK DR
19F026883 22:05:48 129 GOODRICH RD & BLAKE DR
19F026894 22:14:17 39R STOLEN RECO 26XX E PONTIAC ST
19F026885 22:18:28 30 TRAFFIC STOP ST JOSEPH BLVD & DEARBORN ST
19F026886 22:18:30 33J LOCKED OUT 35XX S HANNA ST
19F026887 22:20:38 25HS HIT SKIP FAIRFIELD AVE & BASS ST
19F026888 22:21:39 36 OCCUPIED VEH NUTTMAN AVE & EDWARDS ST
19F026889 22:26:57 30 TRAFFIC STOP W JEFFERSON BLVD & CATALPA ST
19F026890 22:28:12 34 TRAFF HAZARD E COLISEUM BLVD & TRIER RD
19F026891 22:29:06 30 TRAFFIC STOP WAYNE TRACE & OXFORD ST
19F026893 22:30:57 EMS 31XX MCDONALD ST
19F026892 22:32:03 46 DOMESTIC 57XX DAISY LN
19F026895 22:42:35 EMS 48XX WAYNE TRACE
19F026896 22:56:59 48,36 COLDWATER RD & E COLISEUM BLVD
19F026897 23:10:46 30 TRAFFIC STOP MCKINNIE AVE & OLIVER ST
19F026898 23:23:28 46 DOMESTIC 50XX EASTWICK DR
19F026899 23:26:53 51IP 6XX W STATE BLVD
19F026900 23:29:04 30 TRAFFIC STOP MCKINNIE AVE & WINTER ST
19F026902 23:40:36 103 UNWANTED 19XX SEDDLEMEYER AVE
19F026901 23:42:02 30 TRAFFIC STOP S CLINTON ST & MCKINNIE AVE
19F026903 23:52:14 30 TRAFFIC STOP 3XX E COLISEUM BLVD
19F026904 23:56:14 EMS 57XX LOIS LN
19F026906 23:58:10 14S SERVING WAR 29XX NORTHSIDE DR
19F026905 23:59:08 65T SUICIDE THR 45XX TRIER RD